[{"OBJECT_NAME":"METOP-B","OBJECT_ID":"2012-049A","EPOCH":"2026-09-12T06:18:17.277408","MEAN_MOTION":14.21458567,"ECCENTRICITY":0.0003457,"INCLINATION":98.6421,"RA_OF_ASC_NODE":304.9895,"ARG_OF_PERICENTER":95.3514,"MEAN_ANOMALY":264.8058,"EPHEMERIS_TYPE":0,"CLASSIFICATION_TYPE":"U","NORAD_CAT_ID":38771,"ELEMENT_SET_NO":999,"REV_AT_EPOCH":72563,"BSTAR":0.000047748208,"MEAN_MOTION_DOT":6.1e-7,"MEAN_MOTION_DDOT":0},{"OBJECT_NAME":"SARAL","OBJECT_ID":"2013-009A","EPOCH":"2026-09-12T06:10:23.315520","MEAN_MOTION":14.32906767,"ECCENTRICITY":0.00026865,"INCLINATION":98.5565,"RA_OF_ASC_NODE":80.736,"ARG_OF_PERICENTER":53.3725,"MEAN_ANOMALY":306.7706,"EPHEMERIS_TYPE":0,"CLASSIFICATION_TYPE":"U","NORAD_CAT_ID":39086,"ELEMENT_SET_NO":999,"REV_AT_EPOCH":70807,"BSTAR":0.000028190912,"MEAN_MOTION_DOT":3.3e-7,"MEAN_MOTION_DDOT":0},{"OBJECT_NAME":"METOP-C","OBJECT_ID":"2018-087A","EPOCH":"2026-09-12T04:59:07.301760","MEAN_MOTION":14.21509908,"ECCENTRICITY":0.00005468,"INCLINATION":98.6958,"RA_OF_ASC_NODE":313.2167,"ARG_OF_PERICENTER":53.1367,"MEAN_ANOMALY":306.9861,"EPHEMERIS_TYPE":0,"CLASSIFICATION_TYPE":"U","NORAD_CAT_ID":43689,"ELEMENT_SET_NO":999,"REV_AT_EPOCH":40719,"BSTAR":0.000048077363,"MEAN_MOTION_DOT":6.2e-7,"MEAN_MOTION_DDOT":0},{"OBJECT_NAME":"OTB-3-GAZELLE","OBJECT_ID":"2022-127A","EPOCH":"2026-09-12T05:44:43.290816","MEAN_MOTION":14.42700544,"ECCENTRICITY":0.00119416,"INCLINATION":98.4031,"RA_OF_ASC_NODE":245.6534,"ARG_OF_PERICENTER":288.3738,"MEAN_ANOMALY":71.6153,"EPHEMERIS_TYPE":0,"CLASSIFICATION_TYPE":"U","NORAD_CAT_ID":54023,"ELEMENT_SET_NO":999,"REV_AT_EPOCH":20691,"BSTAR":0.000034279223,"MEAN_MOTION_DOT":7.1e-7,"MEAN_MOTION_DDOT":0},{"OBJECT_NAME":"EOS-6 (OCEANSAT-3)","OBJECT_ID":"2022-158A","EPOCH":"2026-09-12T06:58:25.057056","MEAN_MOTION":14.46977376,"ECCENTRICITY":0.00023351,"INCLINATION":98.3552,"RA_OF_ASC_NODE":352.3312,"ARG_OF_PERICENTER":92.9973,"MEAN_ANOMALY":267.1487,"EPHEMERIS_TYPE":0,"CLASSIFICATION_TYPE":"U","NORAD_CAT_ID":54361,"ELEMENT_SET_NO":999,"REV_AT_EPOCH":20043,"BSTAR":0.00006150458,"MEAN_MOTION_DOT":0.0000018,"MEAN_MOTION_DDOT":0},{"OBJECT_NAME":"KINEIS-1B","OBJECT_ID":"2024-114A","EPOCH":"2026-09-12T07:03:45.292608","MEAN_MOTION":14.80742598,"ECCENTRICITY":0.00030403,"INCLINATION":97.9811,"RA_OF_ASC_NODE":279.0619,"ARG_OF_PERICENTER":145.3543,"MEAN_ANOMALY":214.7868,"EPHEMERIS_TYPE":0,"CLASSIFICATION_TYPE":"U","NORAD_CAT_ID":60079,"ELEMENT_SET_NO":999,"REV_AT_EPOCH":12029,"BSTAR":0.000073104958,"MEAN_MOTION_DOT":0.0000051,"MEAN_MOTION_DDOT":0},{"OBJECT_NAME":"KINEIS-1C","OBJECT_ID":"2024-114C","EPOCH":"2026-09-12T06:14:56.215968","MEAN_MOTION":14.80740571,"ECCENTRICITY":0.0000505,"INCLINATION":97.9829,"RA_OF_ASC_NODE":278.8965,"ARG_OF_PERICENTER":108.3486,"MEAN_ANOMALY":251.7781,"EPHEMERIS_TYPE":0,"CLASSIFICATION_TYPE":"U","NORAD_CAT_ID":60081,"ELEMENT_SET_NO":999,"REV_AT_EPOCH":12026,"BSTAR":0.000071637055,"MEAN_MOTION_DOT":0.00000499,"MEAN_MOTION_DDOT":0},{"OBJECT_NAME":"KINEIS-1D","OBJECT_ID":"2024-114D","EPOCH":"2026-09-12T08:05:55.533984","MEAN_MOTION":14.76419649,"ECCENTRICITY":0.00001113,"INCLINATION":97.9875,"RA_OF_ASC_NODE":274.528,"ARG_OF_PERICENTER":53.2853,"MEAN_ANOMALY":306.8366,"EPHEMERIS_TYPE":0,"CLASSIFICATION_TYPE":"U","NORAD_CAT_ID":60082,"ELEMENT_SET_NO":999,"REV_AT_EPOCH":11998,"BSTAR":0.000063469093,"MEAN_MOTION_DOT":0.0000039,"MEAN_MOTION_DDOT":0},{"OBJECT_NAME":"KINEIS-1E","OBJECT_ID":"2024-114E","EPOCH":"2026-09-12T08:16:20.477280","MEAN_MOTION":14.80768106,"ECCENTRICITY":0.00012077,"INCLINATION":97.8937,"RA_OF_ASC_NODE":277.3959,"ARG_OF_PERICENTER":306.3008,"MEAN_ANOMALY":53.8092,"EPHEMERIS_TYPE":0,"CLASSIFICATION_TYPE":"U","NORAD_CAT_ID":60083,"ELEMENT_SET_NO":999,"REV_AT_EPOCH":12028,"BSTAR":0.000066635653,"MEAN_MOTION_DOT":0.00000462,"MEAN_MOTION_DDOT":0},{"OBJECT_NAME":"KINEIS-1A","OBJECT_ID":"2024-114F","EPOCH":"2026-09-12T07:28:23.294208","MEAN_MOTION":14.80730364,"ECCENTRICITY":0.00034205,"INCLINATION":97.8909,"RA_OF_ASC_NODE":277.4358,"ARG_OF_PERICENTER":197.7825,"MEAN_ANOMALY":162.3268,"EPHEMERIS_TYPE":0,"CLASSIFICATION_TYPE":"U","NORAD_CAT_ID":60084,"ELEMENT_SET_NO":999,"REV_AT_EPOCH":12028,"BSTAR":0.00006738996,"MEAN_MOTION_DOT":0.00000467,"MEAN_MOTION_DDOT":0},{"OBJECT_NAME":"KINEIS-3C","OBJECT_ID":"2024-172A","EPOCH":"2026-09-12T04:46:42.171744","MEAN_MOTION":14.72313063,"ECCENTRICITY":0.00010615,"INCLINATION":98.0412,"RA_OF_ASC_NODE":344.1657,"ARG_OF_PERICENTER":167.7345,"MEAN_ANOMALY":192.3888,"EPHEMERIS_TYPE":0,"CLASSIFICATION_TYPE":"U","NORAD_CAT_ID":61220,"ELEMENT_SET_NO":999,"REV_AT_EPOCH":10587,"BSTAR":0.00019784857,"MEAN_MOTION_DOT":0.00001201,"MEAN_MOTION_DDOT":0},{"OBJECT_NAME":"KINEIS-3D","OBJECT_ID":"2024-172B","EPOCH":"2026-09-12T04:37:09.484032","MEAN_MOTION":14.72302542,"ECCENTRICITY":0.00010692,"INCLINATION":98.0411,"RA_OF_ASC_NODE":344.1687,"ARG_OF_PERICENTER":158.3764,"MEAN_ANOMALY":201.7489,"EPHEMERIS_TYPE":0,"CLASSIFICATION_TYPE":"U","NORAD_CAT_ID":61221,"ELEMENT_SET_NO":999,"REV_AT_EPOCH":10615,"BSTAR":0.0001967635,"MEAN_MOTION_DOT":0.00001194,"MEAN_MOTION_DDOT":0},{"OBJECT_NAME":"KINEIS-3E","OBJECT_ID":"2024-172C","EPOCH":"2026-09-12T05:49:51.686112","MEAN_MOTION":14.7236728,"ECCENTRICITY":0.00011892,"INCLINATION":98.0406,"RA_OF_ASC_NODE":344.1966,"ARG_OF_PERICENTER":120.7558,"MEAN_ANOMALY":239.3766,"EPHEMERIS_TYPE":0,"CLASSIFICATION_TYPE":"U","NORAD_CAT_ID":61222,"ELEMENT_SET_NO":999,"REV_AT_EPOCH":10616,"BSTAR":0.00019462872,"MEAN_MOTION_DOT":0.00001182,"MEAN_MOTION_DDOT":0},{"OBJECT_NAME":"KINEIS-3A","OBJECT_ID":"2024-172D","EPOCH":"2026-09-12T05:26:26.191392","MEAN_MOTION":14.72320037,"ECCENTRICITY":0.00026385,"INCLINATION":98.0404,"RA_OF_ASC_NODE":344.2761,"ARG_OF_PERICENTER":143.8082,"MEAN_ANOMALY":216.3304,"EPHEMERIS_TYPE":0,"CLASSIFICATION_TYPE":"U","NORAD_CAT_ID":61223,"ELEMENT_SET_NO":999,"REV_AT_EPOCH":10558,"BSTAR":0.0001943074,"MEAN_MOTION_DOT":0.00001179,"MEAN_MOTION_DDOT":0},{"OBJECT_NAME":"KINEIS-3B","OBJECT_ID":"2024-172E","EPOCH":"2026-09-12T05:01:46.128288","MEAN_MOTION":14.72318238,"ECCENTRICITY":0.00029026,"INCLINATION":98.0398,"RA_OF_ASC_NODE":344.2768,"ARG_OF_PERICENTER":129.7536,"MEAN_ANOMALY":230.3927,"EPHEMERIS_TYPE":0,"CLASSIFICATION_TYPE":"U","NORAD_CAT_ID":61224,"ELEMENT_SET_NO":999,"REV_AT_EPOCH":10615,"BSTAR":0.00019578846,"MEAN_MOTION_DOT":0.00001188,"MEAN_MOTION_DDOT":0},{"OBJECT_NAME":"KINEIS-5C","OBJECT_ID":"2024-219A","EPOCH":"2026-09-12T06:06:08.438112","MEAN_MOTION":14.72312792,"ECCENTRICITY":0.00043302,"INCLINATION":97.9144,"RA_OF_ASC_NODE":51.7418,"ARG_OF_PERICENTER":22.7805,"MEAN_ANOMALY":337.3594,"EPHEMERIS_TYPE":0,"CLASSIFICATION_TYPE":"U","NORAD_CAT_ID":62081,"ELEMENT_SET_NO":999,"REV_AT_EPOCH":9656,"BSTAR":0.000073434185,"MEAN_MOTION_DOT":0.00000416,"MEAN_MOTION_DDOT":0},{"OBJECT_NAME":"KINEIS-5D","OBJECT_ID":"2024-219B","EPOCH":"2026-09-12T06:31:48.258048","MEAN_MOTION":14.72578799,"ECCENTRICITY":0.00049198,"INCLINATION":97.926,"RA_OF_ASC_NODE":51.9284,"ARG_OF_PERICENTER":10.3583,"MEAN_ANOMALY":349.7726,"EPHEMERIS_TYPE":0,"CLASSIFICATION_TYPE":"U","NORAD_CAT_ID":62082,"ELEMENT_SET_NO":999,"REV_AT_EPOCH":9657,"BSTAR":0.00010212752,"MEAN_MOTION_DOT":0.00000601,"MEAN_MOTION_DDOT":0},{"OBJECT_NAME":"KINEIS-5E","OBJECT_ID":"2024-219C","EPOCH":"2026-09-12T07:11:10.040064","MEAN_MOTION":14.72285729,"ECCENTRICITY":0.00061497,"INCLINATION":97.9103,"RA_OF_ASC_NODE":51.847,"ARG_OF_PERICENTER":0.2813,"MEAN_ANOMALY":359.8398,"EPHEMERIS_TYPE":0,"CLASSIFICATION_TYPE":"U","NORAD_CAT_ID":62083,"ELEMENT_SET_NO":999,"REV_AT_EPOCH":9658,"BSTAR":0.000067396276,"MEAN_MOTION_DOT":0.00000377,"MEAN_MOTION_DDOT":0},{"OBJECT_NAME":"KINEIS-5A","OBJECT_ID":"2024-219D","EPOCH":"2026-09-12T06:37:07.550112","MEAN_MOTION":14.72288685,"ECCENTRICITY":0.00051539,"INCLINATION":97.9041,"RA_OF_ASC_NODE":52.0659,"ARG_OF_PERICENTER":42.591,"MEAN_ANOMALY":317.5697,"EPHEMERIS_TYPE":0,"CLASSIFICATION_TYPE":"U","NORAD_CAT_ID":62084,"ELEMENT_SET_NO":999,"REV_AT_EPOCH":9658,"BSTAR":-0.00028686205,"MEAN_MOTION_DOT":-0.0000186,"MEAN_MOTION_DDOT":0},{"OBJECT_NAME":"KINEIS-5B","OBJECT_ID":"2024-219E","EPOCH":"2026-09-12T06:55:42.636288","MEAN_MOTION":14.78483656,"ECCENTRICITY":0.00020411,"INCLINATION":98.0162,"RA_OF_ASC_NODE":58.6763,"ARG_OF_PERICENTER":30.7324,"MEAN_ANOMALY":329.4006,"EPHEMERIS_TYPE":0,"CLASSIFICATION_TYPE":"U","NORAD_CAT_ID":62085,"ELEMENT_SET_NO":999,"REV_AT_EPOCH":9687,"BSTAR":0.0001045917,"MEAN_MOTION_DOT":0.00000711,"MEAN_MOTION_DDOT":0},{"OBJECT_NAME":"KINEIS-2C","OBJECT_ID":"2025-028B","EPOCH":"2026-09-12T02:34:36.318720","MEAN_MOTION":14.73559344,"ECCENTRICITY":0.00036281,"INCLINATION":98.1164,"RA_OF_ASC_NODE":309.5718,"ARG_OF_PERICENTER":13.8839,"MEAN_ANOMALY":346.2468,"EPHEMERIS_TYPE":0,"CLASSIFICATION_TYPE":"U","NORAD_CAT_ID":62929,"ELEMENT_SET_NO":999,"REV_AT_EPOCH":8541,"BSTAR":0.00015454107,"MEAN_MOTION_DOT":0.00000954,"MEAN_MOTION_DDOT":0},{"OBJECT_NAME":"KINEIS-2D","OBJECT_ID":"2025-028C","EPOCH":"2026-09-12T02:36:09.902016","MEAN_MOTION":14.7590312,"ECCENTRICITY":0.00017509,"INCLINATION":97.9207,"RA_OF_ASC_NODE":305.8574,"ARG_OF_PERICENTER":293.5768,"MEAN_ANOMALY":66.5258,"EPHEMERIS_TYPE":0,"CLASSIFICATION_TYPE":"U","NORAD_CAT_ID":62930,"ELEMENT_SET_NO":999,"REV_AT_EPOCH":8553,"BSTAR":0.00014779072,"MEAN_MOTION_DOT":0.00000965,"MEAN_MOTION_DDOT":0},{"OBJECT_NAME":"KINEIS-2E","OBJECT_ID":"2025-028D","EPOCH":"2026-09-12T03:15:59.712192","MEAN_MOTION":14.77205355,"ECCENTRICITY":0.00009993,"INCLINATION":97.8876,"RA_OF_ASC_NODE":304.8938,"ARG_OF_PERICENTER":109.0727,"MEAN_ANOMALY":251.0591,"EPHEMERIS_TYPE":0,"CLASSIFICATION_TYPE":"U","NORAD_CAT_ID":62931,"ELEMENT_SET_NO":999,"REV_AT_EPOCH":8561,"BSTAR":0.00012410896,"MEAN_MOTION_DOT":0.00000829,"MEAN_MOTION_DDOT":0}]